Location: Ay?beleni
(36.6500°N, 30.3000°E)
Time: 03:56:21
(UTC+00:00)

SL-16 R/B - Pass Details

Date: 16 October 2021
Orbit: 842 x 846 km, 71.0° (Epoch: 08 December)

Event Time Altitude Azimuth Distance (km) Brightness Sun altitude
Rises 18:01:19 0° 217° (SW) 3,385 5.6 -32.8°
Reaches altitude 10° 18:03:51 10° 223° (SW) 2,454 4.9 -33.2°
Enters shadow 18:08:48 45° 282° (WNW) 1,132 3.1 -34.2°
